Laconia, NH

9:41 PM EST on November 22, 2019 (GMT -0500)
Laconia Municipal

Weather History for KLCI - September, 2019

Change the Weather History Date:

Monday, September 30, 2019

  Actual Average Record
Temperature  
Mean Temperature 47 °F -  
Max Temperature 57 °F 67 °F 81 °F (1987)
Min Temperature 37 °F 42 °F 32 °F (1991)
Degree Days  
Heating Degree Days 18    
Moisture  
Dew Point 41 °F    
Average Humidity 77    
Maximum Humidity 97    
Minimum Humidity 53    
Precipitation  
Precipitation 0.00 in - - ()
Sea Level Pressure  
Sea Level Pressure 30.35 in    
Wind  
Wind Speed 2 mph ()    
Max Wind Speed 10 mph    
Max Gust Speed -    
Visibility 10.0 miles    
Events Rain    
Averages and records for this station are not official NWS values.
T = Trace of Precipitation, MM = Missing Value Source: Averaged Metar Reports

Daily Weather History Graph

Daily Weather History Graph

Search for Another Location

Airport or City:

Astronomy

Sep. 30, 2019 Rise Set
Actual Time 6:41 AM EDT 6:28 PM EDT
Civil Twilight 6:13 AM EDT 6:57 PM EDT
Nautical Twilight 5:39 AM EDT 7:30 PM EDT
Astronomical Twilight 5:06 AM EDT 8:04 PM EDT
Moon 8:44 AM EDT (9/30) 7:59 PM EDT (9/30)
Length of Visible Light 12h 44m
Length of Day
11h 47m
Waxing Crescent, 5% of the Moon is Illuminated
Sep 30
Waxing Crescent
Oct 5
First Quarter
Oct 13
Full
Oct 21
Last Quarter
Oct 27
New

Hourly Weather History & Observations

Time (EDT) Temp. Windchill Dew Point Humidity Pressure Visibility Wind Dir Wind Speed Gust Speed Precip Events Conditions
12:56 AM 42.1 °F - 39.9 °F 92% 30.38 in 10.0 mi Calm Calm - N/A   Clear
1:56 AM 41.0 °F - 39.0 °F 93% 30.39 in 10.0 mi Calm Calm - N/A   Clear
2:56 AM 39.0 °F - 37.0 °F 93% 30.39 in 10.0 mi Calm Calm - N/A   Clear
3:56 AM 39.9 °F - 39.0 °F 97% 30.40 in 10.0 mi Calm Calm - N/A   Clear
4:56 AM 39.9 °F - 37.9 °F 93% 30.40 in 10.0 mi Calm Calm - N/A   Clear
5:56 AM 37.9 °F - 37.0 °F 97% 30.42 in 10.0 mi Calm Calm - N/A   Clear
6:56 AM 39.0 °F - 37.9 °F 96% 30.43 in 10.0 mi Calm Calm - N/A   Partly Cloudy
7:17 AM 39.2 °F - 37.4 °F 93% 30.42 in 10.0 mi Calm Calm - N/A   Mostly Cloudy
7:29 AM 41.0 °F - 39.2 °F 93% 30.42 in 10.0 mi Calm Calm - N/A   Scattered Clouds
7:56 AM 46.0 °F 41.4 °F 39.9 °F 79% 30.43 in 10.0 mi ENE 9.2 mph - N/A   Clear
8:56 AM 48.0 °F - 39.0 °F 71% 30.43 in 10.0 mi ENE 10.4 mph - N/A   Clear
9:56 AM 50.0 °F - 39.0 °F 66% 30.43 in 10.0 mi ESE 5.8 mph - N/A   Clear
10:56 AM 51.1 °F - 39.0 °F 63% 30.43 in 10.0 mi NNE 8.1 mph - N/A   Clear
11:56 AM 54.0 °F - 39.9 °F 59% 30.40 in 10.0 mi NNE 6.9 mph - N/A   Clear
12:56 PM 53.1 °F - 39.9 °F 61% 30.38 in 10.0 mi ENE 5.8 mph - N/A   Clear
1:56 PM 54.0 °F - 41.0 °F 62% 30.36 in 10.0 mi Calm Calm - N/A   Clear
2:56 PM 57.0 °F - 41.0 °F 55% 30.32 in 10.0 mi West 5.8 mph - N/A   Clear
3:56 PM 57.9 °F - 41.0 °F 53% 30.30 in 10.0 mi WSW 8.1 mph - N/A   Mostly Cloudy
4:56 PM 57.0 °F - 41.0 °F 55% 30.28 in 10.0 mi WSW 5.8 mph - N/A   Scattered Clouds
5:56 PM 57.0 °F - 43.0 °F 59% 30.27 in 10.0 mi Calm Calm - N/A   Overcast
6:56 PM 54.0 °F - 46.9 °F 77% 30.27 in 10.0 mi Calm Calm - N/A   Overcast
7:56 PM 53.1 °F - 46.9 °F 80% 30.26 in 10.0 mi Calm Calm - N/A   Overcast
8:56 PM 52.0 °F - 46.9 °F 83% 30.25 in 10.0 mi Calm Calm - N/A   Scattered Clouds
9:56 PM 53.1 °F - 46.9 °F 80% 30.24 in 10.0 mi Calm Calm - N/A   Overcast
10:56 PM 54.0 °F - 46.9 °F 77% 30.23 in 10.0 mi Calm Calm - N/A   Overcast
11:56 PM 53.1 °F - 48.9 °F 86% 30.22 in 10.0 mi Calm Calm - 0.00 in Rain Light Rain